When you browse on this site, cookies collect data to enhance your experience and personalize the content and advertising you see.
Visit our Privacy Policy to learn more. By continuing to use the site, you agree to this use of cookies and data.
  • En España
  • Lista de países
  • Para 7 días
  • Temperatura del agua
  • El tiempo en el mapa
  • Informadores
  • user-avatar
    Iniciar sesión

    Tiempo cada hora Elbasan

    Hoy, 7 Abril, Martes

    Tiempo Temperatura Precipitaciones Viento Presión Humedad
    00:00 +8°C° 0 mm 2 mps 742 mmHg 65%
    01:00 +8°C° 0 mm 2 mps 742 mmHg 68%
    02:00 +8°C° 0 mm 2 mps 742 mmHg 67%
    03:00 +8°C° 0 mm 2 mps 742 mmHg 66%
    04:00 +7°C° 0 mm 2 mps 741 mmHg 65%
    05:00 +8°C° 0 mm 3 mps 742 mmHg 63%
    06:00 +9°C° 0 mm 3 mps 742 mmHg 61%
    07:00 +10°C° 0 mm 3 mps 742 mmHg 59%
    08:00 +12°C° 0 mm 3 mps 742 mmHg 49%
    09:00 +14°C° 0 mm 3 mps 742 mmHg 39%
    10:00 +15°C° 0 mm 4 mps 742 mmHg 29%
    11:00 +17°C° 0 mm 4 mps 742 mmHg 30%
    12:00 +16°C° 0 mm 5 mps 742 mmHg 30%
    13:00 +17°C° 0 mm 5 mps 742 mmHg 30%
    14:00 +16°C° 0 mm 5 mps 742 mmHg 32%
    15:00 +17°C° 0 mm 4 mps 742 mmHg 35%
    16:00 +15°C° 0 mm 4 mps 742 mmHg 37%
    17:00 +14°C° 0 mm 4 mps 742 mmHg 41%
    18:00 +12°C° 0 mm 4 mps 742 mmHg 45%
    19:00 +10°C° 0 mm 3 mps 742 mmHg 49%
    20:00 +10°C° 0 mm 3 mps 743 mmHg 49%
    21:00 +9°C° 0 mm 3 mps 743 mmHg 50%
    22:00 +9°C° 0 mm 3 mps 743 mmHg 50%
    23:00 +8°C° 0 mm 3 mps 743 mmHg 52%

    Mañana, 8 Abril, Miércoles

    Tiempo Temperatura Precipitaciones Viento Presión Humedad
    00:00 +8°C° 0 mm 3 mps 743 mmHg 54%
    01:00 +7°C° 0 mm 3 mps 743 mmHg 56%
    02:00 +7°C° 0 mm 2 mps 743 mmHg 57%
    03:00 +7°C° 0 mm 2 mps 743 mmHg 59%
    04:00 +6°C° 0 mm 2 mps 742 mmHg 60%
    05:00 +7°C° 0 mm 2 mps 742 mmHg 60%
    06:00 +8°C° 0 mm 2 mps 742 mmHg 60%
    07:00 +9°C° 0 mm 2 mps 742 mmHg 60%
    08:00 +12°C° 0 mm 2 mps 742 mmHg 53%
    09:00 +14°C° 0 mm 2 mps 742 mmHg 45%
    10:00 +16°C° 0 mm 2 mps 742 mmHg 38%
    11:00 +16°C° 0 mm 2 mps 741 mmHg 36%
    12:00 +17°C° 0 mm 2 mps 741 mmHg 34%
    13:00 +18°C° 0 mm 2 mps 741 mmHg 32%
    14:00 +18°C° 0 mm 2 mps 740 mmHg 34%
    15:00 +18°C° 0 mm 3 mps 740 mmHg 36%
    16:00 +18°C° 0 mm 3 mps 739 mmHg 37%
    17:00 +16°C° 0 mm 2 mps 739 mmHg 44%
    18:00 +14°C° 0 mm 2 mps 739 mmHg 50%
    19:00 +12°C° 0 mm 2 mps 739 mmHg 57%
    20:00 +10°C° 0 mm 2 mps 739 mmHg 57%
    21:00 +10°C° 0 mm 2 mps 740 mmHg 57%
    22:00 +9°C° 0 mm 2 mps 740 mmHg 57%
    23:00 +9°C° 0 mm 2 mps 740 mmHg 57%

    Pasado mañana, 9 Abril, Jueves

    Tiempo Temperatura Precipitaciones Viento Presión Humedad
    00:00 +9°C° 0 mm 2 mps 739 mmHg 57%
    01:00 +8°C° 0 mm 2 mps 739 mmHg 57%
    02:00 +8°C° 0 mm 2 mps 739 mmHg 58%
    03:00 +8°C° 0 mm 2 mps 739 mmHg 59%
    04:00 +7°C° 0 mm 2 mps 739 mmHg 60%
    05:00 +8°C° 0 mm 2 mps 739 mmHg 60%
    06:00 +10°C° 0 mm 2 mps 739 mmHg 59%
    07:00 +12°C° 0 mm 1 mps 739 mmHg 59%
    08:00 +14°C° 0 mm 1 mps 739 mmHg 52%
    09:00 +16°C° 0 mm 1 mps 739 mmHg 46%
    10:00 +18°C° 0 mm 1 mps 739 mmHg 40%
    11:00 +18°C° 0 mm 2 mps 738 mmHg 39%
    12:00 +19°C° 0 mm 2 mps 738 mmHg 39%
    13:00 +20°C° 0 mm 2 mps 738 mmHg 38%
    14:00 +19°C° 0 mm 2 mps 738 mmHg 42%
    15:00 +18°C° 0 mm 3 mps 737 mmHg 47%
    16:00 +18°C° 0 mm 3 mps 737 mmHg 51%
    17:00 +16°C° 0 mm 2 mps 737 mmHg 59%
    18:00 +14°C° 0 mm 1 mps 737 mmHg 68%
    19:00 +11°C° 0 mm 0 mps 737 mmHg 77%
    20:00 +11°C° 0 mm 0 mps 737 mmHg 77%
    21:00 +11°C° 0 mm 0 mps 737 mmHg 76%
    22:00 +11°C° 0 mm 1 mps 738 mmHg 76%
    23:00 +11°C° 0 mm 1 mps 738 mmHg 75%

    10 Abril, Viernes

    Tiempo Temperatura Precipitaciones Viento Presión Humedad
    00:00 +11°C° 0 mm 1 mps 737 mmHg 73%
    01:00 +10°C° 0 mm 1 mps 737 mmHg 72%
    02:00 +10°C° 0 mm 1 mps 737 mmHg 71%
    03:00 +10°C° 0 mm 1 mps 737 mmHg 71%
    04:00 +10°C° 0 mm 1 mps 737 mmHg 70%
    05:00 +11°C° 0 mm 1 mps 737 mmHg 67%
    06:00 +12°C° 0 mm 1 mps 738 mmHg 65%
    07:00 +13°C° 0 mm 1 mps 738 mmHg 62%
    08:00 +15°C° 0 mm 1 mps 738 mmHg 56%
    09:00 +18°C° 0 mm 1 mps 738 mmHg 50%
    10:00 +20°C° 0 mm 1 mps 738 mmHg 44%
    11:00 +20°C° 0 mm 1 mps 738 mmHg 43%
    12:00 +20°C° 0 mm 2 mps 737 mmHg 42%
    13:00 +21°C° 0 mm 2 mps 737 mmHg 42%
    14:00 +20°C° 0 mm 2 mps 737 mmHg 45%
    15:00 +20°C° 0 mm 2 mps 737 mmHg 49%
    16:00 +19°C° 0 mm 2 mps 736 mmHg 52%
    17:00 +17°C° 0 mm 2 mps 736 mmHg 61%
    18:00 +15°C° 0 mm 1 mps 736 mmHg 69%
    19:00 +13°C° 0 mm 0 mps 737 mmHg 78%
    20:00 +12°C° 0 mm 0 mps 737 mmHg 77%
    21:00 +13°C° 0 mm 1 mps 737 mmHg 76%
    22:00 +13°C° 0 mm 1 mps 738 mmHg 75%
    23:00 +12°C° 0 mm 1 mps 738 mmHg 74%

    11 Abril, Sábado

    Tiempo Temperatura Precipitaciones Viento Presión Humedad
    00:00 +12°C° 0 mm 1 mps 738 mmHg 73%
    01:00 +12°C° 0 mm 1 mps 738 mmHg 72%
    02:00 +12°C° 0 mm 1 mps 738 mmHg 72%
    03:00 +11°C° 0 mm 1 mps 738 mmHg 72%
    04:00 +10°C° 0 mm 2 mps 738 mmHg 72%
    05:00 +12°C° 0 mm 2 mps 738 mmHg 70%
    06:00 +13°C° 0 mm 2 mps 738 mmHg 68%
    07:00 +15°C° 0 mm 2 mps 738 mmHg 66%
    08:00 +16°C° 0 mm 1 mps 738 mmHg 60%
    09:00 +19°C° 0 mm 1 mps 739 mmHg 54%
    10:00 +21°C° 0 mm 1 mps 739 mmHg 48%
    11:00 +21°C° 0 mm 1 mps 739 mmHg 48%
    12:00 +20°C° 0 mm 2 mps 738 mmHg 49%
    13:00 +20°C° 0 mm 2 mps 738 mmHg 49%
    14:00 +20°C° 0.2 mm 2 mps 738 mmHg 54%
    15:00 +19°C° 0.2 mm 2 mps 738 mmHg 59%
    16:00 +18°C° 0.2 mm 2 mps 737 mmHg 65%
    17:00 +18°C° 0.2 mm 1 mps 737 mmHg 70%
    18:00 +16°C° 0.2 mm 1 mps 737 mmHg 76%
    19:00 +13°C° 0.2 mm 0 mps 737 mmHg 81%
    20:00 +13°C° 0.1 mm 0 mps 738 mmHg 81%
    21:00 +13°C° 0.1 mm 0 mps 738 mmHg 81%
    22:00 +12°C° 0.1 mm 0 mps 738 mmHg 80%
    23:00 +12°C° 0 mm 0 mps 738 mmHg 80%

    12 Abril, Domingo

    Tiempo Temperatura Precipitaciones Viento Presión Humedad
    00:00 +12°C° 0 mm 0 mps 738 mmHg 80%
    01:00 +12°C° 0 mm 0 mps 738 mmHg 79%
    02:00 +11°C° 0 mm 0 mps 738 mmHg 79%
    03:00 +12°C° 0 mm 1 mps 738 mmHg 80%
    04:00 +12°C° 0 mm 1 mps 738 mmHg 80%
    05:00 +13°C° 0 mm 1 mps 738 mmHg 76%
    06:00 +13°C° 0 mm 0 mps 738 mmHg 73%
    07:00 +14°C° 0 mm 0 mps 738 mmHg 70%
    08:00 +16°C° 0 mm 1 mps 738 mmHg 65%
    09:00 +19°C° 0 mm 1 mps 738 mmHg 61%
    10:00 +19°C° 0 mm 2 mps 738 mmHg 57%
    11:00 +19°C° 0.1 mm 2 mps 737 mmHg 55%
    12:00 +19°C° 0.1 mm 2 mps 737 mmHg 54%
    13:00 +20°C° 0.1 mm 3 mps 737 mmHg 53%
    14:00 +19°C° 0.1 mm 3 mps 737 mmHg 55%
    15:00 +19°C° 0.1 mm 2 mps 737 mmHg 57%
    16:00 +18°C° 0.1 mm 2 mps 736 mmHg 59%
    17:00 +17°C° 0 mm 2 mps 736 mmHg 67%
    18:00 +15°C° 0 mm 1 mps 736 mmHg 74%
    19:00 +12°C° 0 mm 0 mps 736 mmHg 82%
    20:00 +12°C° 0 mm 0 mps 736 mmHg 82%
    21:00 +12°C° 0 mm 0 mps 736 mmHg 83%
    22:00 +11°C° 0 mm 0 mps 737 mmHg 83%
    23:00 +11°C° 0 mm 0 mps 737 mmHg 83%
    Mostrar más